| time (UTC) | temp C | wind direction | speed KPH | gust KPH | rain 1hr cm | rain 24hr cm | rain mn cm | humidity % | barometer mb |
| 20260503224230 | 13 | 257 | 12.9 | 12.9 | 0.00 | 0.00 | 0.00 | 46 | 1012.5 |
| 20260503223727 | 13 | 264 | 11.3 | 12.9 | 0.00 | 0.00 | 0.00 | 47 | 1012.3 |
| 20260503223225 | 13 | 271 | 4.8 | 6.4 | 0.00 | 0.00 | 0.00 | 48 | 1012.3 |
| 20260503222721 | 13 | 281 | 9.7 | 11.3 | 0.00 | 0.00 | 0.00 | 46 | 1012.4 |
| 20260503222219 | 13 | 245 | 4.8 | 6.4 | 0.00 | 0.00 | 0.00 | 46 | 1012.4 |
| 20260503221717 | 13 | 256 | 6.4 | 9.7 | 0.00 | 0.00 | 0.00 | 48 | 1012.3 |
| 20260503221214 | 14 | 262 | 8.0 | 9.7 | 0.00 | 0.00 | 0.00 | 47 | 1012.5 |
| 20260503220711 | 14 | 270 | 8.0 | 9.7 | 0.00 | 0.00 | 0.00 | 46 | 1012.5 |
| 20260503220207 | 13 | 267 | 3.2 | 4.8 | 0.00 | 0.00 | 0.00 | 46 | 1012.6 |
| 20260503215704 | 13 | 263 | 6.4 | 9.7 | 0.00 | 0.00 | 0.00 | 47 | 1012.6 |
| 20260503215201 | 13 | 236 | 0.0 | 1.6 | 0.00 | 0.00 | 0.00 | 50 | 1012.5 |
| 20260503214700 | 15 | 279 | 9.7 | 12.9 | 0.00 | 0.00 | 0.00 | 45 | 1012.5 |
| 20260503214155 | 14 | 236 | 8.0 | 12.9 | 0.00 | 0.00 | 0.00 | 47 | 1012.5 |
| 20260503213655 | 14 | 250 | 0.0 | 1.6 | 0.00 | 0.00 | 0.00 | 47 | 1012.4 |
| 20260503213151 | 13 | 229 | 3.2 | 6.4 | 0.00 | 0.00 | 0.00 | 49 | 1012.4 |
| 20260503212648 | 13 | 281 | 11.3 | 12.9 | 0.00 | 0.00 | 0.00 | 46 | 1012.6 |
| 20260503212146 | 13 | 234 | 3.2 | 4.8 | 0.00 | 0.00 | 0.00 | 46 | 1012.2 |
| 20260503211643 | 13 | 250 | 3.2 | 3.2 | 0.00 | 0.00 | 0.00 | 50 | 1012.3 |
| 20260503211138 | 13 | 246 | 0.0 | 1.6 | 0.00 | 0.00 | 0.00 | 49 | 1012.4 |
| 20260503210635 | 13 | 288 | 9.7 | 11.3 | 0.00 | 0.00 | 0.00 | 46 | 1012.5 |
| 20260503210132 | 13 | 237 | 4.8 | 6.4 | 0.00 | 0.00 | 0.00 | 48 | 1012.4 |
| 20260503205628 | 13 | 254 | 8.0 | 11.3 | 0.00 | 0.00 | 0.00 | 47 | 1012.5 |
| 20260503205124 | 13 | 263 | 8.0 | 9.7 | 0.00 | 0.00 | 0.00 | 48 | 1012.4 |
| 20260503204621 | 13 | 248 | 8.0 | 9.7 | 0.00 | 0.00 | 0.00 | 47 | 1012.5 |
| 20260503204119 | 13 | 267 | 8.0 | 9.7 | 0.00 | 0.00 | 0.00 | 47 | 1012.5 |
| 20260503203615 | 13 | 253 | 4.8 | 6.4 | 0.00 | 0.00 | 0.00 | 46 | 1012.6 |
| 20260503203113 | 13 | 240 | 6.4 | 6.4 | 0.00 | 0.00 | 0.00 | 46 | 1012.4 |
| 20260503202611 | 13 | 256 | 6.4 | 6.4 | 0.00 | 0.00 | 0.00 | 48 | 1012.4 |
| 20260503202109 | 13 | 252 | 4.8 | 6.4 | 0.00 | 0.00 | 0.00 | 48 | 1012.5 |
| 20260503201607 | 13 | 276 | 4.8 | 6.4 | 0.00 | 0.00 | 0.00 | 46 | 1012.6 |
| 20260503201104 | 13 | 281 | 8.0 | 9.7 | 0.00 | 0.00 | 0.00 | 46 | 1012.7 |
| 20260503200600 | 13 | 274 | 11.3 | 14.5 | 0.00 | 0.00 | 0.00 | 46 | 1012.6 |
| 20260503200056 | 13 | 275 | 9.7 | 14.5 | 0.00 | 0.00 | 0.00 | 47 | 1012.6 |
| 20260503195553 | 13 | 308 | 8.0 | 11.3 | 0.00 | 0.00 | 0.00 | 46 | 1012.7 |
| 20260503195050 | 15 | 268 | 9.7 | 12.9 | 0.00 | 0.00 | 0.00 | 45 | 1012.7 |
| 20260503194547 | 15 | 266 | 3.2 | 3.2 | 0.00 | 0.00 | 0.00 | 46 | 1012.7 |
| 20260503194047 | 13 | 228 | 3.2 | 4.8 | 0.00 | 0.00 | 0.00 | 49 | 1012.9 |
| 20260503193544 | 13 | 259 | 6.4 | 9.7 | 0.00 | 0.00 | 0.00 | 49 | 1012.9 |
| 20260503193039 | 13 | 281 | 3.2 | 4.8 | 0.00 | 0.00 | 0.00 | 48 | 1012.9 |
| 20260503192535 | 13 | 228 | 3.2 | 3.2 | 0.00 | 0.00 | 0.00 | 46 | 1013.0 |
| 20260503192031 | 13 | 279 | 1.6 | 3.2 | 0.00 | 0.00 | 0.00 | 46 | 1013.2 |
| 20260503191528 | 13 | 273 | 9.7 | 11.3 | 0.00 | 0.00 | 0.00 | 46 | 1013.2 |
| 20260503191025 | 14 | 161 | 8.0 | 11.3 | 0.00 | 0.00 | 0.00 | 42 | 1013.1 |
| 20260503190522 | 13 | 270 | 3.2 | 3.2 | 0.00 | 0.00 | 0.00 | 48 | 1013.3 |
| 20260503190019 | 13 | 252 | 4.8 | 4.8 | 0.00 | 0.00 | 0.00 | 49 | 1013.2 |
| 20260503185515 | 13 | 274 | 4.8 | 9.7 | 0.00 | 0.00 | 0.00 | 48 | 1013.4 |
| 20260503185015 | 13 | 246 | 3.2 | 6.4 | 0.00 | 0.00 | 0.00 | 50 | 1013.5 |
| 20260503184511 | 13 | 275 | 9.7 | 12.9 | 0.00 | 0.00 | 0.00 | 49 | 1013.3 |
| 20260503184008 | 13 | 298 | 4.8 | 4.8 | 0.00 | 0.00 | 0.00 | 49 | 1013.4 |
| 20260503183504 | 13 | 231 | 3.2 | 3.2 | 0.00 | 0.00 | 0.00 | 50 | 1013.5 |
| 20260503183001 | 13 | 291 | 3.2 | 4.8 | 0.00 | 0.00 | 0.00 | 51 | 1013.8 |
| 20260503182500 | 13 | 266 | 4.8 | 4.8 | 0.00 | 0.00 | 0.00 | 48 | 1013.8 |
| 20260503181957 | 13 | 291 | 3.2 | 4.8 | 0.00 | 0.00 | 0.00 | 45 | 1013.9 |
| 20260503181454 | 12 | 257 | 6.4 | 6.4 | 0.00 | 0.00 | 0.00 | 50 | 1013.8 |
| 20260503180950 | 13 | 263 | 12.9 | 14.5 | 0.00 | 0.00 | 0.00 | 51 | 1013.7 |
| 20260503180449 | 13 | 272 | 3.2 | 4.8 | 0.00 | 0.00 | 0.00 | 49 | 1013.8 |
| 20260503175945 | 13 | 225 | 1.6 | 3.2 | 0.00 | 0.00 | 0.00 | 50 | 1013.8 |
| 20260503175443 | 12 | 238 | 3.2 | 3.2 | 0.00 | 0.00 | 0.00 | 52 | 1013.8 |
| 20260503174939 | 13 | 267 | 6.4 | 6.4 | 0.00 | 0.00 | 0.00 | 52 | 1013.8 |
| 20260503174438 | 13 | 290 | 9.7 | 16.1 | 0.00 | 0.00 | 0.00 | 51 | 1013.9 |
| 20260503173937 | 14 | 182 | 3.2 | 4.8 | 0.00 | 0.00 | 0.00 | 54 | 1013.7 |
| 20260503173434 | 13 | 261 | 3.2 | 3.2 | 0.00 | 0.00 | 0.00 | 48 | 1013.8 |
| 20260503172931 | 13 | 258 | 0.0 | 1.6 | 0.00 | 0.00 | 0.00 | 49 | 1013.8 |
| 20260503172428 | 14 | 211 | 0.0 | 0.0 | 0.00 | 0.00 | 0.00 | 53 | 1014.0 |
| 20260503171924 | 13 | 297 | 6.4 | 6.4 | 0.00 | 0.00 | 0.00 | 50 | 1013.9 |
| 20260503171421 | 13 | 314 | 3.2 | 4.8 | 0.00 | 0.00 | 0.00 | 53 | 1014.0 |
| 20260503170919 | 12 | 264 | 1.6 | 3.2 | 0.00 | 0.00 | 0.00 | 54 | 1013.9 |
| 20260503170415 | 12 | 271 | 4.8 | 6.4 | 0.00 | 0.00 | 0.00 | 50 | 1013.9 |
| 20260503150807 | 10 | 270 | 3.2 | 4.8 | 0.00 | 0.00 | 0.00 | 51 | 1015.0 |
| 20260503150303 | 10 | 322 | 8.0 | 11.3 | 0.00 | 0.00 | 0.00 | 53 | 1015.2 |
| 20260503140228 | 10 | 295 | 6.4 | 9.7 | 0.00 | 0.00 | 0.00 | 59 | 1015.3 |
| 20260503131157 | 7 | 52 | 6.4 | 9.7 | 0.00 | 0.00 | 0.00 | 65 | 1015.7 |
| 20260503130654 | 6 | 271 | 0.0 | 0.0 | 0.00 | 0.00 | 0.00 | 68 | 1015.8 |
| 20260503130152 | 7 | 258 | 1.6 | 3.2 | 0.00 | 0.00 | 0.00 | 67 | 1015.9 |
| 20260503120123 | 5 | 199 | 3.2 | 3.2 | 0.00 | 0.00 | 0.00 | 74 | 1015.5 |
| 20260503110551 | 3 | 255 | 0.0 | 0.0 | 0.00 | 0.00 | 0.00 | 79 | 1015.1 |
| 20260503090437 | 1 | 258 | 0.0 | 0.0 | 0.00 | 0.00 | 0.00 | 86 | 1014.3 |
| 20260503081404 | 2 | 255 | 0.0 | 0.0 | 0.00 | 0.00 | 0.00 | 80 | 1014.1 |
| 20260503080901 | 2 | 282 | 1.6 | 3.2 | 0.00 | 0.00 | 0.00 | 79 | 1014.0 |
| 20260503080358 | 2 | 242 | 0.0 | 0.0 | 0.00 | 0.00 | 0.00 | 80 | 1014.0 |
| 20260503072834 | 2 | 236 | 1.6 | 1.6 | 0.00 | 0.00 | 0.00 | 80 | 1013.9 |
| 20260503072331 | 2 | 252 | 0.0 | 0.0 | 0.00 | 0.00 | 0.00 | 79 | 1013.8 |
| 20260503071827 | 2 | 250 | 0.0 | 0.0 | 0.00 | 0.00 | 0.00 | 80 | 1013.7 |
| 20260503071325 | 2 | 260 | 0.0 | 0.0 | 0.00 | 0.00 | 0.00 | 78 | 1013.9 |
| 20260503070821 | 2 | 222 | 0.0 | 0.0 | 0.00 | 0.00 | 0.00 | 77 | 1013.8 |
| 20260503070319 | 2 | 286 | 0.0 | 1.6 | 0.00 | 0.00 | 0.00 | 78 | 1013.8 |
| 20260503060244 | 3 | 260 | 0.0 | 0.0 | 0.00 | 0.00 | 0.00 | 77 | 1013.7 |
| 20260503054731 | 4 | 250 | 0.0 | 0.0 | 0.00 | 0.00 | 0.00 | 74 | 1013.9 |
| 20260503054228 | 4 | 261 | 1.6 | 3.2 | 0.00 | 0.00 | 0.00 | 74 | 1013.8 |
| 20260503053726 | 4 | 260 | 1.6 | 1.6 | 0.00 | 0.00 | 0.00 | 75 | 1013.9 |
| 20260503053225 | 4 | 260 | 1.6 | 1.6 | 0.00 | 0.00 | 0.00 | 74 | 1014.0 |
| 20260503052720 | 4 | 265 | 1.6 | 1.6 | 0.00 | 0.00 | 0.00 | 76 | 1013.8 |
| 20260503052217 | 4 | 259 | 3.2 | 3.2 | 0.00 | 0.00 | 0.00 | 76 | 1013.9 |
| 20260503051712 | 4 | 261 | 0.0 | 0.0 | 0.00 | 0.00 | 0.00 | 78 | 1013.7 |
| 20260503051210 | 4 | 263 | 0.0 | 0.0 | 0.00 | 0.00 | 0.00 | 77 | 1014.1 |
| 20260503050706 | 4 | 259 | 1.6 | 1.6 | 0.00 | 0.00 | 0.00 | 77 | 1014.0 |
| 20260503050203 | 5 | 252 | 0.0 | 0.0 | 0.00 | 0.00 | 0.00 | 77 | 1014.2 |
| 20260503045700 | 5 | 256 | 0.0 | 0.0 | 0.00 | 0.00 | 0.00 | 77 | 1014.3 |
| 20260503045158 | 5 | 256 | 0.0 | 0.0 | 0.00 | 0.00 | 0.00 | 77 | 1014.1 |
| 20260503044654 | 5 | 255 | 0.0 | 0.0 | 0.00 | 0.00 | 0.00 | 74 | 1014.2 |
| 20260503044152 | 5 | 255 | 0.0 | 0.0 | 0.00 | 0.00 | 0.00 | 75 | 1014.0 |
| 20260503043648 | 5 | 263 | 0.0 | 1.6 | 0.00 | 0.00 | 0.00 | 75 | 1014.2 |
| 20260503043146 | 5 | 253 | 0.0 | 1.6 | 0.00 | 0.00 | 0.00 | 75 | 1014.0 |
| 20260503042642 | 5 | 246 | 0.0 | 1.6 | 0.00 | 0.00 | 0.00 | 74 | 1013.9 |
| 20260503042138 | 5 | 250 | 0.0 | 0.0 | 0.00 | 0.00 | 0.00 | 74 | 1014.1 |
| 20260503041634 | 5 | 237 | 1.6 | 1.6 | 0.00 | 0.00 | 0.00 | 73 | 1014.3 |
| 20260503041132 | 5 | 333 | 3.2 | 4.8 | 0.00 | 0.00 | 0.00 | 73 | 1014.1 |
| 20260503040629 | 5 | 250 | 0.0 | 1.6 | 0.00 | 0.00 | 0.00 | 73 | 1014.2 |
| 20260503040127 | 5 | 245 | 0.0 | 0.0 | 0.00 | 0.23 | 0.23 | 76 | 1014.1 |
| 20260503035623 | 5 | 255 | 1.6 | 3.2 | 0.00 | 0.23 | 0.23 | 75 | 1014.3 |
| 20260503035121 | 5 | 242 | 0.0 | 0.0 | 0.00 | 0.23 | 0.23 | 77 | 1014.2 |
| 20260503034618 | 5 | 249 | 0.0 | 0.0 | 0.00 | 0.23 | 0.23 | 78 | 1014.5 |
| 20260503034116 | 5 | 259 | 3.2 | 3.2 | 0.00 | 0.23 | 0.23 | 76 | 1014.2 |
| 20260503033613 | 5 | 258 | 0.0 | 0.0 | 0.00 | 0.23 | 0.23 | 77 | 1014.4 |
| 20260503033110 | 5 | 249 | 0.0 | 0.0 | 0.00 | 0.23 | 0.23 | 80 | 1014.3 |
| 20260503032608 | 5 | 250 | 0.0 | 0.0 | 0.00 | 0.23 | 0.23 | 80 | 1014.3 |
| 20260503032107 | 5 | 244 | 0.0 | 0.0 | 0.00 | 0.23 | 0.23 | 81 | 1014.3 |
| 20260503031604 | 5 | 261 | 0.0 | 0.0 | 0.00 | 0.23 | 0.23 | 82 | 1014.2 |
| 20260503031101 | 5 | 265 | 1.6 | 1.6 | 0.00 | 0.23 | 0.23 | 83 | 1014.4 |
| 20260503030557 | 5 | 250 | 0.0 | 0.0 | 0.00 | 0.23 | 0.23 | 82 | 1014.4 |
| 20260503030054 | 5 | 256 | 0.0 | 0.0 | 0.00 | 0.23 | 0.23 | 82 | 1014.3 |
| 20260503025551 | 5 | 253 | 0.0 | 0.0 | 0.00 | 0.23 | 0.23 | 81 | 1014.4 |
| 20260503025049 | 5 | 256 | 1.6 | 1.6 | 0.00 | 0.23 | 0.23 | 79 | 1014.4 |
| 20260503024544 | 5 | 261 | 3.2 | 4.8 | 0.00 | 0.23 | 0.23 | 79 | 1014.4 |
| 20260503024042 | 5 | 249 | 0.0 | 1.6 | 0.00 | 0.23 | 0.23 | 81 | 1014.6 |
| 20260503023538 | 5 | 259 | 3.2 | 3.2 | 0.00 | 0.23 | 0.23 | 82 | 1014.5 |
| 20260503023036 | 5 | 252 | 0.0 | 0.0 | 0.00 | 0.23 | 0.23 | 85 | 1014.5 |
| 20260503022532 | 5 | 272 | 0.0 | 1.6 | 0.00 | 0.23 | 0.23 | 85 | 1014.5 |
| 20260503022026 | 5 | 263 | 3.2 | 3.2 | 0.00 | 0.23 | 0.23 | 87 | 1014.4 |
| 20260503021524 | 5 | 249 | 0.0 | 1.6 | 0.00 | 0.23 | 0.23 | 87 | 1014.5 |
| 20260503021020 | 5 | 251 | 1.6 | 3.2 | 0.00 | 0.23 | 0.23 | 86 | 1014.4 |
| 20260503020518 | 5 | 252 | 0.0 | 0.0 | 0.00 | 0.23 | 0.23 | 87 | 1014.4 |
| 20260503020014 | 5 | 251 | 0.0 | 0.0 | 0.00 | 0.23 | 0.23 | 87 | 1014.4 |
| 20260503015511 | 5 | 252 | 0.0 | 1.6 | 0.00 | 0.23 | 0.23 | 87 | 1014.4 |
| 20260503015008 | 5 | 251 | 0.0 | 0.0 | 0.00 | 0.23 | 0.23 | 87 | 1014.2 |
| 20260503014504 | 5 | 257 | 1.6 | 1.6 | 0.00 | 0.23 | 0.23 | 87 | 1014.3 |
| 20260503014002 | 5 | 251 | 0.0 | 0.0 | 0.00 | 0.23 | 0.23 | 87 | 1014.2 |
| 20260503013459 | 5 | 253 | 0.0 | 0.0 | 0.00 | 0.23 | 0.23 | 87 | 1014.2 |
| 20260503012956 | 5 | 249 | 0.0 | 0.0 | 0.00 | 0.23 | 0.23 | 87 | 1014.4 |
| 20260503012454 | 5 | 248 | 0.0 | 0.0 | 0.00 | 0.23 | 0.23 | 86 | 1014.2 |
| 20260503011950 | 5 | 265 | 3.2 | 4.8 | 0.00 | 0.23 | 0.23 | 85 | 1014.2 |
| 20260503011447 | 5 | 253 | 0.0 | 1.6 | 0.00 | 0.23 | 0.23 | 85 | 1014.1 |
| 20260503010944 | 5 | 256 | 1.6 | 1.6 | 0.00 | 0.23 | 0.23 | 85 | 1014.1 |
| 20260503010441 | 5 | 249 | 0.0 | 0.0 | 0.00 | 0.23 | 0.23 | 85 | 1014.1 |
| 20260503005938 | 5 | 240 | 0.0 | 0.0 | 0.00 | 0.23 | 0.23 | 87 | 1014.1 |
| 20260503005435 | 5 | 256 | 0.0 | 0.0 | 0.00 | 0.23 | 0.23 | 87 | 1014.1 |
| 20260503004932 | 5 | 249 | 0.0 | 0.0 | 0.00 | 0.23 | 0.23 | 88 | 1014.1 |
| 20260503004429 | 5 | 250 | 0.0 | 0.0 | 0.00 | 0.23 | 0.23 | 88 | 1014.0 |
| 20260503003926 | 5 | 253 | 0.0 | 0.0 | 0.00 | 0.23 | 0.23 | 88 | 1013.8 |
| 20260503003423 | 5 | 251 | 0.0 | 0.0 | 0.00 | 0.23 | 0.23 | 89 | 1013.9 |
| 20260503002920 | 5 | 255 | 0.0 | 0.0 | 0.00 | 0.23 | 0.23 | 90 | 1013.8 |
| 20260503002417 | 5 | 253 | 0.0 | 0.0 | 0.00 | 0.23 | 0.23 | 90 | 1013.7 |
| 20260503001914 | 5 | 255 | 0.0 | 0.0 | 0.00 | 0.23 | 0.23 | 90 | 1013.9 |
| 20260503001410 | 5 | 254 | 0.0 | 0.0 | 0.00 | 0.23 | 0.23 | 89 | 1013.8 |
| 20260503000908 | 5 | 253 | 0.0 | 0.0 | 0.00 | 0.23 | 0.23 | 88 | 1013.8 |
| 20260503000405 | 6 | 253 | 0.0 | 0.0 | 0.00 | 0.23 | 0.23 | 86 | 1013.8 |
| 20260502235902 | 6 | 253 | 0.0 | 0.0 | 0.00 | 0.23 | 0.23 | 85 | 1013.7 |
| 20260502235359 | 6 | 260 | 0.0 | 0.0 | 0.00 | 0.23 | 0.23 | 84 | 1013.8 |
| 20260502234856 | 6 | 254 | 0.0 | 0.0 | 0.00 | 0.23 | 0.23 | 85 | 1013.4 |
| 20260502234352 | 6 | 249 | 0.0 | 0.0 | 0.00 | 0.23 | 0.23 | 85 | 1013.5 |
| 20260502233849 | 6 | 249 | 0.0 | 0.0 | 0.00 | 0.23 | 0.23 | 83 | 1013.7 |
| 20260502233345 | 6 | 267 | 3.2 | 4.8 | 0.00 | 0.23 | 0.23 | 80 | 1013.7 |
| 20260502232843 | 6 | 257 | 1.6 | 3.2 | 0.00 | 0.23 | 0.23 | 80 | 1013.5 |
| 20260502232339 | 6 | 279 | 1.6 | 3.2 | 0.00 | 0.23 | 0.23 | 79 | 1013.5 |
| 20260502231835 | 6 | 271 | 1.6 | 1.6 | 0.00 | 0.23 | 0.23 | 78 | 1013.4 |
| 20260502231333 | 6 | 260 | 3.2 | 3.2 | 0.00 | 0.23 | 0.23 | 78 | 1013.2 |
| 20260502230831 | 7 | 253 | 0.0 | 0.0 | 0.00 | 0.23 | 0.23 | 80 | 1013.4 |
| 20260502230329 | 7 | 236 | 1.6 | 3.2 | 0.00 | 0.23 | 0.23 | 78 | 1013.4 |
| 20260502225826 | 7 | 248 | 0.0 | 0.0 | 0.00 | 0.23 | 0.23 | 80 | 1013.5 |
| 20260502225322 | 7 | 272 | 3.2 | 4.8 | 0.00 | 0.23 | 0.23 | 79 | 1013.3 |
| 20260502224819 | 7 | 230 | 1.6 | 1.6 | 0.00 | 0.23 | 0.23 | 77 | 1013.4 |